This is the latest recevied weather packets stored in our database for station/object SP7QPD-1. If no packets are shown the sender has not sent any weather packets the latest 10 day(s).
| Time | Temp. | Humidity | Pressure | Rain* | Wind** | Luminosity | Snow |
|---|---|---|---|---|---|---|---|
| 1778174624 | 14.44° C | 61% | 1009.7 hPa | 0 mm | - | - | - |
| 1778174024 | 14.44° C | 61% | 1009.7 hPa | 0 mm | - | - | - |
| 1778173424 | 14.44° C | 62% | 1010 hPa | 0 mm | - | - | - |
| 1778172824 | 15° C | 62% | 1009.8 hPa | 0 mm | - | - | - |
| 1778172224 | 15° C | 63% | 1009.6 hPa | 0 mm | - | - | - |
| 1778171624 | 15.56° C | 64% | 1009.3 hPa | 0 mm | - | - | - |
| 1778171023 | 15.56° C | 64% | 1009.5 hPa | 0 mm | - | - | - |
| 1778170423 | 15.56° C | 64% | 1009.1 hPa | 0 mm | - | - | - |
| 1778169823 | 16.11° C | 63% | 1009.1 hPa | 0 mm | - | - | - |
| 1778169223 | 16.11° C | 64% | 1009.1 hPa | 0 mm | - | - | - |
| 1778168623 | 16.11° C | 65% | 1009 hPa | 0 mm | - | - | - |
| 1778168023 | 16.67° C | 66% | 1008.8 hPa | 0 mm | - | - | - |
| 1778167423 | 16.67° C | 69% | 1008.8 hPa | 0 mm | - | - | - |
| 1778166823 | 16.67° C | 71% | 1009 hPa | 0 mm | - | - | - |
| 1778166223 | 17.22° C | 72% | 1008.7 hPa | 0 mm | - | - | - |
| 1778165623 | 17.22° C | 70% | 1008.7 hPa | 0 mm | - | - | - |
| 1778165023 | 17.78° C | 70% | 1008.8 hPa | 0 mm | - | - | - |
| 1778164423 | 17.78° C | 69% | 1008.7 hPa | 0 mm | - | - | - |
| 1778163822 | 17.78° C | 70% | 1008.9 hPa | 0 mm | - | - | - |
| 1778163222 | 17.78° C | 69% | 1008.9 hPa | 0 mm | - | - | - |
| 1778162622 | 18.33° C | 70% | 1008.8 hPa | 0 mm | - | - | - |
| 1778162022 | 18.33° C | 70% | 1008.8 hPa | 0 mm | - | - | - |
| 1778161422 | 18.33° C | 70% | 1008.8 hPa | 0 mm | - | - | - |
| 1778160822 | 18.33° C | 70% | 1008.9 hPa | 0 mm | - | - | - |
| 1778160222 | 18.33° C | 71% | 1008.8 hPa | 0 mm | - | - | - |
* Rain latest hour (hover to see other rain measurements)
** Current wind speed in m/s (hover to see current wind gust speed)